Tracking 19638 objects as of 20-May-2019
HD Live streaming from Space Station
objects crossing your sky now

COSMOS 482 DESCENT CRAFT

Track COSMOS 482 DESCENT CRAFT now!
10-day predictions
COSMOS 482 DESCENT CRAFT is classified as:


NORAD ID: 6073
Int'l Code: 1972-023E
Perigee: 209.0 km
Apogee: 2,380.9 km
Inclination: 52.1 °
Period: 111.3 minutes
Semi major axis: 7665 km
RCS: 0.7153 m2 (medium)
Launch date: March 31, 1972
Source: Commonwealth of Independent States (former USSR) (CIS)
Launch site: TYURATAM MISSILE AND SPACE COMPLEX (TTMTR)
aabbcc
Your satellite tracking list
Your tracking list is empty




NASA's NSSDC Master Catalog

Two Line Element Set (TLE):
1  6073U 72023E   19140.48410196  .00024512  57992-5  10962-3 0  9990
2  6073  52.0510 315.0078 1416599 164.3760 200.5998 12.93455844450925
Source of the keplerian elements: AFSPC